OPS 4682 DEB, 18670

Orbit data source: Space-Track

OPS 4682 DEB, 18670 is space debris in LEO originally from a launch on Sat, 03 Apr 1965 UTC launched from the Air Force Western Test Range (AFWTR). Debris objects in space refer to the collection of defunct objects orbiting the Earth. Examples of debris include non-operational satellites, rocket bodies, and fragments generated from explosions, collisions, or faulty payload assembly.

Loading next visibility...
Identifier
18670, 1965-027AG
Orbit
LEO
Country
Flag of USUS
Related business
Manufacturer
Unknown
Mission
Spacecraft
Bus & Motor
Unknown
Mass
Unknown
Launch date (UTC)
1965-04-03 (61 years ago)
Launch vehicle
Unknown
Launch site
Air Force Western Test Range (AFWTR)
Object type
Payload
Rocket body
Debris
Shape & HBR
Unknown shape, 0.1 m
Radar Cross Section
Medium (>0.1 m² and <1 m²)

Expand to show TLE details & history
Last TLE update: 2 days ago

TLE from 2 days ago
0 OPS 4682 DEB
1 18670U 65027AG  26206.40760500  .00000605  00000-0  20631-2 0  9995
2 18670  90.2377 357.1282 0025864  40.1655 320.1371 12.97251779667721
Epoch: 2026-07-25T09:46Z
TLE epoch observation values (Epoch: 2026-07-25T09:46:57.072Z)
Latitude
-0.00006°
Longitude
-92.72992°
Altitude
1,260.582 km
Speed
7.232 km/s
True Right ascension
23h 48m 30s
True Declination
0° 00' 00"
Sunlit
Object was in full shadow at epoch
Visualization orbit readout
Latitude
Unknown
Longitude
Unknown
Altitude
Unknown
Speed
Unknown
Apparent Right ascension
Unknown
Apparent Declination
Unknown
Sunlit
N/A
Visualization observer readout
Local Sidereal Time
00:03:21
Azimuth
Unknown
Elevation
Unknown
Doppler factor
Unknown
Orbital elements
Apogee altitude
1,289.786 km
Perigee altitude
1,250.223 km
Semi-major axis
7,648.141 km
Eccentricity
0.00259
Inclination
90.2377°
RAAN
357.1282°
Arg. of periapsis
40.1655°
True anomaly
319.94666°
Mean anomaly
320.1371°
Eccentric anomaly
320.04193°
Mean motion
3.24496 °/min
Orbital period
110.94 mins
BSTAR
0.0020631
Loading maneuver chart data...
Computing Atmospheric mass density...
Loading historical data...
Loading historical data...
Loading historical data...
Loading historical data...
Loading historical data...
Loading historical data...
Loading historical data...

Documentation

Showing up to 5 results
|